Lid_Strength_Index
0 -0 -0 -1 -1 -1 -1 -1 -1 -1 -1 -1 -1 -1 -0 -1 -0 -1 -1 -1 -2 -1 -1 -1 -2 -1 -1 -1 -1 -2 -1 -1 -1 -1 -1 -1 -1 -1 -1 -1 -1 -1 -1
-0 0 -0 -0 -1 -1 -1 -1 -0 -1 -0 -1 -0 -1 -1 -1 -1 -1 -1 -1 -2 -2 -1 -1 -1 -2 -2 -2 -2 -1 -1 -2 -2 -1 -2 -2 -1 -1 -1 -1 -1 -1 -1
-0 -0 -0 0 -0 -1 -1 -1 -0 -1 0 1 1 -0 -1 -1 -0 -1 -1 -1 -1 -2 -2 -2 -2 -2 -1 -2 -2 -2 -2 -2 -2 -2 -2 -2 -1 -1 -1 -2 -1 -1 -1
-0 -0 -0 0 -0 -1 -1 0 -0 0 1 1 1 0 -0 -1 -1 -1 -1 -1 -1 -1 -1 -3 -2 -2 -2 -2 -2 -2 -2 -2 -1 -2 -2 -2 -1 -1 -2 -2 -2 -1 -1
-1 -0 -0 -0 -0 -0 -0 0 0 0 2 1 0 0 -0 0 -0 -1 -1 -1 -1 -1 -1 -2 -2 -2 -2 -2 -1 -2 -2 -2 -1 -2 -2 -2 -2 -2 -2 -2 -2 -2 -2
-1 -0 -0 -0 -0 0 0 1 0 1 1 1 1 1 0 0 -0 -1 -1 -1 -1 -1 -1 -1 -2 -1 -2 -1 -2 -2 -2 -2 -2 -2 -2 -2 -2 -2 -2 -2 -2 -2 -2
-1 -0 0 -0 -0 0 0 1 1 1 1 1 1 1 1 1 1 1 1 -1 -1 -1 -1 -1 -1 -1 -1 -2 -1 -1 -1 -1 -1 -2 -2 -2 -2 -2 -2 -2 -2 -2 -2
-1 -0 0 0 -0 1 1 1 1 2 2 1 2 2 4 2 1 2 1 0 -0 -1 -1 -1 -1 -1 -1 -1 -1 -1 -1 -1 -1 -1 -1 -2 -1 -1 -1 -1 -1 -1 -1
-1 -1 0 0 0 0 1 1 2 2 2 1 1 2 5 5 3 1 2 1 0 0 -1 -1 -1 -1 -1 -1 -1 -1 -1 -2 -1 -1 -1 -1 -1 -1 -1 -1 -1 -1 -1
-0 -1 0 0 0 0 1 1 2 3 1 2 1 1 2 2 4 5 2 2 2 1 -0 -1 -1 -1 -1 -1 -1 -2 -3 -3 -3 -2 -2 -1 -2 -1 -1 -1 -2 -2 -2
-0 -0 -0 0 1 1 1 2 2 2 1 1 1 2 1 3 3 3 5 3 1 1 1 -0 -0 -1 -1 -1 -1 -1 -4 -4 -4 -3 -2 -2 -1 -1 -1 -1 -1 -1 -2
0 0 0 1 1 1 1 2 2 2 0 0 1 1 2 3 3 3 4 3 3 2 1 0 0 -1 -1 -1 -1 -1 -3 -3 -3 -3 -3 -3 -2 -1 -1 -2 -2 -2 -2
1 1 1 1 1 1 1 2 2 2 0 1 1 1 1 2 1 2 2 3 3 2 1 0 0 -0 -0 -1 -1 -1 -2 -3 -2 -2 -2 -2 -3 -3 -2 -2 -2 -2 -2
1 -0 0 1 1 1 1 2 2 2 0 0 1 1 1 1 1 1 2 3 4 3 2 1 0 -1 -0 -0 -1 -1 -1 -2 -2 -2 -2 -2 -2 -2 -3 -3 -3 -3 -2
0 0 0 1 1 2 2 2 2 2 1 1 1 0 1 1 1 1 2 1 3 5 4 2 2 -0 -1 -0 -1 -2 -1 -2 -2 -1 -1 -1 -1 -2 -2 -2 -2 -2 -2
0 0 1 1 1 2 2 2 3 2 1 1 1 0 1 1 1 1 0 2 2 2 4 2 1 -0 -0 -1 -1 -1 -1 -1 -1 -1 -1 -1 -1 -1 -2 -2 -1 -2 -2
1 0 1 1 1 2 2 2 3 2 2 1 1 1 1 0 1 1 1 2 2 2 3 2 1 0 0 -0 -1 -1 -1 -1 -1 -0 -0 -0 0 -0 -1 -1 -1 -1 -1
1 0 1 1 1 2 2 3 3 2 2 1 1 1 1 1 1 0 1 1 1 1 2 3 1 1 0 1 -0 -0 -0 -0 -1 -1 -0 0 0 0 1 1 1 1 1
1 1 1 1 2 2 2 2 2 2 2 1 1 1 1 1 1 1 1 1 1 1 1 2 2 1 0 -0 -0 1 -0 -1 -0 -1 -0 0 1 1 1 2 2 3 3
1 1 1 1 2 2 2 2 2 2 2 2 2 1 1 1 1 1 1 1 1 1 1 2 2 1 1 0 0 2 1 0 1 0 -0 0 0 0 1 2 2 2 2
1 1 1 2 1 2 2 2 2 2 2 2 1 1 1 2 1 1 1 1 1 1 2 2 2 2 2 2 2 1 2 2 0 -0 -0 -0 -0 -1 -1 0 0 -0 1
1 1 1 2 2 1 4 4 2 2 2 2 2 2 2 2 1 2 2 2 1 1 2 2 2 3 2 1 1 1 2 2 3 -0 0 1 0 -0 -1 -1 -0 -0 0
1 1 1 1 1 1 5 5 4 2 2 3 3 3 3 2 2 1 2 2 2 2 2 1 2 2 2 1 1 1 1 2 2 0 1 2 0 1 -1 -1 -0 -0 -1
2 2 1 1 1 1 6 7 5 2 2 2 2 3 2 2 2 2 0 1 1 0 1 0 0 0 -0 -1 -0 0 1 1 1 0 0 3 0 1 -1 -1 -1 -1 -1
2 2 1 1 2 1 7 7 6 3 3 3 3 3 3 3 4 5 2 1 1 1 3 3 2 2 3 2 1 1 2 2 3 2 0 1 1 1 0 -0 -1 -1 -0
2 1 2 1 3 1 7 8 6 3 4 3 3 4 6 3 7 7 1 2 2 2 1 1 -0 1 2 1 2 -0 0 2 2 3 0 2 1 1 2 -0 -0 -0 -1